Flag for Australia Weather past 2 weeks in Port Hedland, Western Australia, Australia

Now
91 °F

Scattered clouds.


Feels Like: 99 °F
Forecast: 80 / 94 °F
Wind: 8 mph from Northeast

Location: Port Hedland Pardoo

Current Time: Mar 7, 2015 at 10:03:15 AM

Latest Report: Mar 7, 2015 at 9:00 AM


Visibility: N/A

Pressure: 29.83 "Hg

Humidity: 52%

Dew point: 72 °F

Location of Port HedlandLocation

Historic Weather in Port Hedland — Graph

°F

Port Hedland temperature yesterday

Maximum temperature yesterday: 100 °F (at 1:30 PM)
Minimum temperature yesterday: 82 °F (at 2:00 AM)
Average temperature yesterday: 88 °F

Past Weeks' High & Low Weather Summary

 TemperatureHumidityPressure
High115 °F (Feb 21, 11:30 AM)100% (Mar 4, 5:30 AM)29.83 "Hg (Mar 4, 5:30 AM)
Low75 °F (Mar 4, 4:00 AM)7% (Feb 21, 11:00 AM)29.47 "Hg (Feb 21, 4:00 PM)
Average87 °F68%29.71 "Hg
* Reported Feb 20 9:00 AM — Mar 7 9:00 AM, Port Hedland, Weather by CustomWeather, © 2015

Note: Actual official high and low records may vary slightly from our data, if they occured in-between our weather recording intervals... More about our weather records

Advertising

Port Hedland weather history for previous 24 hours

 ConditionsComfort  
Time TempWeatherWind HumidityBarometerVisibility
9:00 AM
Sat, Mar 7
91 °FScattered clouds.8 mph52%29.83 "HgN/A
8:30 AM90 °FSunny.7 mph59%29.83 "Hg4 mi
8:00 AM88 °FSunny.9 mph66%29.83 "HgN/A
7:00 AM84 °FSunny.7 mph84%29.83 "HgN/A
6:30 AM82 °FSunny.5 mph84%29.83 "HgN/A
6:00 AM82 °FScattered clouds.5 mph84%29.83 "HgN/A
5:30 AM81 °FBroken clouds.5 mph94%29.80 "HgN/A
5:00 AM81 °FPassing clouds.6 mph89%29.80 "HgN/A
4:00 AM81 °FPassing clouds.7 mph89%29.80 "HgN/A
3:30 AM82 °FPassing clouds.8 mph84%29.77 "HgN/A
3:00 AM82 °FClear.5 mph89%29.77 "HgN/A
2:00 AM82 °FClear.No wind89%29.80 "HgN/A
1:30 AM84 °FPartly cloudy.No wind84%29.80 "HgN/A
1:00 AM84 °FPartly cloudy.1 mph84%29.80 "HgN/A
12:30 AM84 °FPartly cloudy.3 mph84%29.80 "HgN/A
12:00 AM84 °FPartly cloudy.7 mph79%29.80 "HgN/A
11:30 PM
Fri, Mar 6
84 °FPartly cloudy.8 mph84%29.80 "HgN/A
11:00 PM84 °FClear.8 mph79%29.80 "HgN/A
10:00 PM86 °FPassing clouds.10 mph75%29.80 "HgN/A
9:30 PM86 °FPassing clouds.12 mph79%29.80 "HgN/A
9:00 PM84 °FClear.12 mph79%29.80 "HgN/A
8:30 PM84 °FPassing clouds.13 mph79%29.80 "HgN/A
8:00 PM84 °FClear.15 mph84%29.80 "HgN/A
7:30 PM86 °FClear.15 mph75%29.77 "HgN/A
7:00 PM86 °FClear.15 mph75%29.77 "HgN/A
6:30 PM86 °FClear.16 mph75%29.77 "HgN/A
6:00 PM86 °FClear.18 mph70%29.74 "HgN/A
5:30 PM88 °FClear.18 mph70%29.74 "HgN/A
5:00 PM88 °FSunny.21 mph70%29.74 "HgN/A
4:30 PM91 °FSunny.21 mph59%29.71 "HgN/A
4:00 PM90 °FSunny.20 mph63%29.74 "HgN/A
3:00 PM95 °FSunny.16 mph56%29.71 "HgN/A
2:30 PM95 °FSunny.17 mph53%29.74 "HgN/A
2:00 PM95 °FSunny.16 mph53%29.74 "HgN/A
1:30 PM100 °FSunny.18 mph35%29.74 "HgN/A
1:00 PM99 °FSunny.15 mph39%29.74 "HgN/A
12:30 PM99 °FSunny.15 mph37%29.77 "HgN/A
12:00 PM99 °FSunny.16 mph37%29.80 "HgN/A
11:00 AM95 °FSunny.20 mph41%29.83 "HgN/A
10:30 AM93 °FSunny.18 mph47%29.83 "HgN/A
10:00 AM91 °FSunny.21 mph46%29.83 "HgN/A
Weather by CustomWeather, © 2015

See weather overviewHow to use our weather pages